Regional Weather Roundup
Issued by NWS

Home | Current Version | Previous Version | Text Only | Print | Product List | Glossary Off
Versions: 1 2 3 4 5 6 7 8 9 10 11 12 13 14 15 16 17 18 19 20 21 22 23 24 25 26 27 28 29 30 31 32 33 34 35 36 37 38 39 40 41 42 43 44 45 46 47 48 49

000
ASUS45 KCYS 041210
RWRWY

WYOMING REGIONAL WEATHER ROUNDUP
NATIONAL WEATHER SERVICE CHEYENNE WY
500 AM MST WED MAR 04 2015

NOTE:  "FAIR" INDICATES FEW OR NO CLOUDS BELOW 12,000 FEET
WITH NO SIGNIFICANT WEATHER AND/OR OBSTRUCTIONS TO VISIBILITY.

WYZ001-041300-
YELLOWSTONE NATIONAL PARK

CITY           SKY/WX    TMP DP  RH WIND       PRES   REMARKS
LK YELLOWSTONE   N/A    -19 -24  77 NW3       29.96R
6HR MIN TEMP: -20; 6HR MAX TEMP:  -3;

W YELLOWSTONE  NOT AVBL

$$
WYZ002>013-054>058-071-098>099-041300-
NORTHERN WYOMING

CITY           SKY/WX    TMP DP  RH WIND       PRES   REMARKS
JACKSON        FAIR       0  -6  78 NE10      30.00R WCI -17
CODY           FAIR       1  -2  85 SW6       30.06S WCI -10
GREYBULL       FAIR       1  -4  79 CALM      30.17R
6HR MIN TEMP:   0; 6HR MAX TEMP:   9;

WORLAND        FAIR       1  -6  72 VRB3      30.14R
6HR MIN TEMP:  -1; 6HR MAX TEMP:   5;

SHERIDAN       CLOUDY     8  -3  61 N15       30.12R WCI  -9
6HR MIN TEMP:  -7; 6HR MAX TEMP:   9;

BUFFALO        FAIR       6  -8  52 NW13      30.04R WCI -10
6HR MIN TEMP:   0; 6HR MAX TEMP:   8;

GILLETTE       FAIR      -1  -9  68 W10       30.07R WCI -17
6HR MIN TEMP:  -1; 6HR MAX TEMP:   2;

HULETT         PTSUNNY    3  -4  72 W3        30.06R
NEWCASTLE      FAIR       5  -4  66 N6        30.07R WCI  -6

$$
WYZ014>020-022>026-101>103-041300-
CENTRAL WYOMING

CITY           SKY/WX    TMP DP  RH WIND       PRES   REMARKS
BIG PINEY      FAIR       3  -3  76 E8        29.95R WCI -10
6HR MIN TEMP:   3; 6HR MAX TEMP:  13;

PINEDALE       FAIR      -9 -15  77 CALM      29.97R
DUBOIS         FAIR      -8 -11  84 NW12      29.91S WCI -27
LANDER         FAIR       1  -7  68 CALM      30.03R
6HR MIN TEMP:  -3; 6HR MAX TEMP:   6;

RIVERTON       FAIR      -5  -8  87 MISG      30.05R
6HR MIN TEMP:  -7; 6HR MAX TEMP:   5;

CASPER         FAIR      -6 -11  79 W9        30.05R WCI -23
6HR MIN TEMP: -11; 6HR MAX TEMP:  -4;

DOUGLAS        FAIR      -9 -13  83 NW8       30.07R WCI -25
6HR MIN TEMP:  -9; 6HR MAX TEMP:   1;


$$
WYZ021-027>030-104>119-041300-
SOUTHERN WYOMING

CITY           SKY/WX    TMP DP  RH WIND       PRES   REMARKS
EVANSTON       CLOUDY    11   8  88 SW7       29.95R WCI   0
6HR MIN TEMP:   8; 6HR MAX TEMP:  14;

FORT BRIDGER   FAIR      11   9  90 W9        29.96S WCI  -2
ROCK SPRINGS   LGT SNOW   1  -3  83 NE6       29.97S FOG     WCI -10
6HR MIN TEMP:  -3; 6HR MAX TEMP:   7; 6HR PCP: TRACE;

DIXON          FAIR       1  -3  85 CALM      30.02R
RAWLINS        FAIR     -19 -23  81 N3        29.97R
6HR MIN TEMP: -19; 6HR MAX TEMP:   6; 6HR PCP: TRACE;

SARATOGA       CLOUDY     5   1  85 W6        29.97R FOG     WCI  -6
LARAMIE        CLOUDY    -1  -5  82 S5        29.91R WCI -11
6HR MIN TEMP:  -1; 6HR MAX TEMP:   4; 6HR PCP: TRACE;

CHEYENNE       LGT SNOW   3  -2  79 W5        29.99R WCI  -6
6HR MIN TEMP:   1; 6HR MAX TEMP:   7; 6HR PCP:  0.02;

TORRINGTON     FAIR       6  -3  66 W7        30.09S WCI  -6
6HR MIN TEMP:   4; 6HR MAX TEMP:  10;

PINE BLUFFS    FAIR       3   0  85 MISG      30.07R

$$


USA.gov is the U.S. government's official web portal to all federal, state and local government web resources and services.